Weather Roundup
Issued by NWS Corpus Christi, TX

Home | Current Version | Previous Version | Text Only | Print | Product List | Glossary On
Versions: 1 2 3 4 5 6 7 8 9 10 11 12 13 14 15 16 17 18 19 20 21 22 23 24 25 26 27 28 29 30 31 32 33 34 35 36 37 38 39 40 41 42 43 44 45 46 47 48 49 50
000
ASUS44 KCRP 151710
HRRCRP

SOUTH TEXAS REGIONAL WEATHER ROUNDUP
NATIONAL WEATHER SERVICE CORPUS CHRISTI TX
1100 AM CST FRI DEC 15 2017


TXZ229>244-151800-
...CORPUS CHRISTI AREA OBSERVATIONS...

CITY           SKY/WX    TMP DP  RH WIND       PRES   REMARKS
CORPUS CHRISTI LGT RAIN  48  42  80 N10       30.33R
NAS CORPUS CHR LGT RAIN  50  42  74 N16       30.32R
ROCKPORT       CLOUDY    49  42  77 N9        30.32R
KINGSVILLE ARP CLOUDY    48  46  91 CALM      30.36R
KINGSVILLE NAS LGT RAIN  48  45  89 N7        30.35R
ALICE          CLOUDY    49  41  74 N8        30.33R
$$

...VICTORIA AREA OBSERVATIONS...

CITY           SKY/WX    TMP DP  RH WIND       PRES   REMARKS
PORT LAVACA    CLOUDY    50  36  58 N14G20    30.32R
VICTORIA       CLOUDY    51  35  54 N12       30.32R
BEEVILLE       PTSUNNY   51  35  56 N15       30.32R
PLEASANTON     CLOUDY    53  31  43 N6        30.35R
SAN ANTONIO    CLOUDY    52  31  44 N10       30.34R
$$

...LAREDO AREA OBSERVATIONS...

CITY           SKY/WX    TMP DP  RH WIND       PRES   REMARKS
LAREDO           N/A    N/A N/A N/A NW12      30.39R
COTULLA        CLOUDY    52  40  63 N7        30.36R
DEL RIO        PTSUNNY   52  34  50 NW8       30.38S
MCALLEN        CLOUDY    51  44  77 NW12      30.37R
HEBBRONVILLE   DRIZZLE   46  42  86 NW7       30.38R
$$

...OTHER TEXAS OBSERVATIONS...

CITY           SKY/WX    TMP DP  RH WIND       PRES   REMARKS
BROWNSVILLE    CLOUDY    52  44  74 NW15G25   30.30R
HOUSTON        CLOUDY    50  36  58 N10G20    30.32R
COL. STATION   CLOUDY    51  31  46 NE9       30.33F
AUSTIN         CLOUDY    52  30  43 N9        30.34R
WACO           MOSUNNY   51  28  41 N12       30.34F
FORT WORTH     MOSUNNY   50  30  46 N9        30.32F
WICHITA FALLS  MOSUNNY   47  26  44 VRB3      30.33F
LUBBOCK        SUNNY     43  26  51 W7        30.30F
EL PASO        SUNNY     43  26  51 VRB6      30.35S
$$

...MARINE OBSERVATIONS...

STATION/POSITION TIME  SKY/WX   TEMP    WIND        PRES    VSBY  WAVE   SWELL
                                AIR SEA DIR/SP/G                  HT/PER HT/PER
                 (UTC)          (F)     (DEG/KT/KT) (MB)    (MI)  (FT/S) (FT/S)
PORT ARANSAS     NOT AVBL
BUOY 90 E PORT A 1550            58 71   20/ 21/ 27 1022.9          7/ 7   2/12
BUOY 200 E PT IS 1550            69 77   20/ 29/ 35 1017.9          6/ 6
BUOY 15 E GALVES 1550            51 60   20/ 19/ 23 1024.8          4/ 4
$$



USA.gov is the U.S. government's official web portal to all federal, state and local government web resources and services.